{"data":{"norad_id":51895,"epoch":"2026-09-20T04:17:23.311392Z","epoch_age_seconds":83950,"freshness":"FRESH","line1":"1 51895U 22022AV  26263.17874203  .00000309  00000+0  20301-4 0  9998","line2":"2 51895  53.1596 189.5614 0001352  76.7105 283.4048 15.34383300252839","mean_motion":15.343833,"eccentricity":0.0001352,"inclination_deg":53.1596,"raan_deg":189.5614,"arg_perigee_deg":76.7105,"mean_anomaly_deg":283.4048,"bstar":2.0301e-5,"rev_number":25283,"period_min":93.848779506398,"perigee_km":461.82798826535,"apogee_km":463.67776488798,"semimajor_km":6840.8898765767,"source":"CELESTRAK","updated_at":"2026-09-20T09:00:39.973993Z"}}